Regional Weather Roundup
Issued by NWS Jackson, KY

Home | Current Version | Previous Version | Text Only | Print | Product List | Glossary Off
Versions: 1 2 3 4 5 6 7 8 9 10 11 12 13 14 15 16 17 18 19 20 21 22 23 24 25 26 27 28 29 30 31 32 33 34 35 36 37 38 39 40 41 42 43 44 45 46 47 48 49 50

000
ASUS43 KJKL 231811
RWRJKL

EAST KENTUCKY HOURLY WEATHER ROUNDUP
NATIONAL WEATHER SERVICE JACKSON KY
200 PM EDT WED APR 23 2014

NOTE: "FAIR" INDICATES FEW OR NO CLOUDS BELOW 12,000 FEET WITH
NO SIGNIFICANT WEATHER AND/OR OBSTRUCTIONS TO VISIBILITY.

* THESE REPORTS ARE NOT UNDER NWS QUALITY CONTROL AND MAY NOT
  REPORT WEATHER SUCH AS PRECIPITATION AND FOG.

KYZ079-080-083-085-087-088-110-112-115-119-120-231900
...EASTERN KENTUCKY...

CITY           SKY/WX    TMP DP  RH WIND       PRES   REMARKS
JACKSON        SUNNY     58  27  30 VRB5      30.05S
6HR MIN TEMP:  44; 6HR MAX TEMP:  59;

LONDON         SUNNY     61  29  29 NW3       30.04F
6HR MIN TEMP:  44; 6HR MAX TEMP:  62;

SOMERSET*      SUNNY     57  30  35 W6        30.08S
WILLIAMSBURG*  SUNNY     61  28  29 CALM      30.04F
MIDDLESBORO*   SUNNY     62  29  27 N7        30.02F
HARLAN APT*    CLEAR     63  23  22 CALM      30.01F
BLACK MTN*       N/A     52  27  37 NW6         N/A
PIKEVILLE APT* SUNNY     55  30  38 NW10G17   30.03F
BIG SANDY*     CLEAR     58  31  35 NW8       30.03F
6HR MIN TEMP:  43; 6HR MAX TEMP:  58;

MOREHEAD APT*  CLEAR     57  34  41 NW9       30.08F
$$

KYZ035-036-041-042-044-050-067-078-099-231900
...CENTRAL KENTUCKY...

CITY           SKY/WX    TMP DP  RH WIND       PRES   REMARKS
MT STERLING*   SUNNY     54  32  43 NE6       30.09S
FLEMING/MASON* SUNNY     54  32  43 N7        30.08F
RICHMOND*      SUNNY     54  32  43 NW8       30.07F
LEXINGTON      SUNNY     56  33  42 CALM      30.08F
6HR MIN TEMP:  42; 6HR MAX TEMP:  56;

FRANKFORT      SUNNY     57  30  35 MISG      30.07F
6HR MIN TEMP:  41; 6HR MAX TEMP:  57;

$$

KYZ091>093-OHZ055-061-077-WVZ005-015-034-035-042-231900
...SOUTHERN OHIO/WEST VIRGINIA...

CITY           SKY/WX    TMP DP  RH WIND       PRES   REMARKS
COVINGTON      SUNNY     56  31  38 VRB3      30.08F
COLUMBUS       MOSUNNY   54  33  45 N10G16    30.07F
DAYTON         MOSUNNY   53  34  48 VRB3      30.09F
WILMINGTON     MOSUNNY   52  32  46 W7        30.07F
HUNTINGTON     SUNNY     58  32  37 NW9G16    30.05S
CHARLESTON     PTSUNNY   56  31  38 NW9G24    30.01F
PINEVILLE*     SUNNY     58  31  35 MISG      30.03S
BECKLEY        SUNNY     54  29  38 NW13G21   29.97S
BLUEFIELD      SUNNY     56  25  30 NW12G24   29.96S
$$

VAZ002-007-008-TNZ017-027-036-066-071-231900
...SOUTHWEST VIRGINIA/EAST TENNESSEE...

CITY           SKY/WX    TMP DP  RH WIND       PRES   REMARKS
ABINGDON*      SUNNY     60  19  20 N5        29.97F
BRISTOL        SUNNY     64  20  18 W12       29.98F
KNOXVILLE      SUNNY     64  29  26 NE12      30.01F
OAK RIDGE      SUNNY     66  29  24 SW3       30.02F
CROSSVILLE     SUNNY     62  28  27 NE9       30.03F
NASHVILLE      MOSUNNY   65  36  34 NE7       30.05F
$$

...KEY TO REMARKS...
VSB - VISIBILITY IN MILES
WCI - WIND CHILL INDEX
HX  - HEAT INDEX

$$



USA.gov is the U.S. government's official web portal to all federal, state and local government web resources and services.